{"data":{"norad_id":58453,"epoch":"2026-09-20T09:27:59.061312Z","epoch_age_seconds":155941,"freshness":"FRESH","line1":"1 58453U 23183S   26263.39443358 -.00000456  00000+0 -70452-5 0  9999","line2":"2 58453  43.0043  21.8786 0001210 259.0512 101.0204 15.27576298156519","mean_motion":15.27576298,"eccentricity":0.000121,"inclination_deg":43.0043,"raan_deg":21.8786,"arg_perigee_deg":259.0512,"mean_anomaly_deg":101.0204,"bstar":-7.0452e-6,"rev_number":15651,"period_min":94.266977164109,"perigee_km":482.2299763229,"apogee_km":483.89038604075,"semimajor_km":6861.1971811818,"source":"CELESTRAK","updated_at":"2026-09-21T09:00:33.878802Z"}}